Location: Dunedin
(45.8670°S, 170.5000°E)
Time: 23:49:30
(UTC+13:00)

CZ-4C R/B - Pass Details

Date: 24 January 2019
Orbit: 654 x 1348 km, 63.4° (Epoch: 15 October)

Event Time Altitude Azimuth Distance (km) Brightness Sun altitude
Rises 21:57:33 0° 221° (SW) 3,785 7.6 -6.4°
Reaches altitude 10° 22:00:59 10° 207° (SSW) 2,695 6.0 -6.8°
Maximum altitude 22:05:46 23° 156° (SSE) 1,772 4.1 -7.5°
Drops below altitude 10° 22:10:00 10° 104° (ESE) 2,344 4.2 -8.1°
Enters shadow 22:12:04 - 92° (E) 2,954 4.6 -8.4°
